[[{"header":{"parameterUnit":"m.s-1","parameterCategory":1,"la1":30.2991,"la2":30.254,"lo1":-89.0895,"lo2":-89.0444,"dy":0.0017,"dx":0.0017,"nx":28,"ny":28,"refTime":"2023-04-20T21:00:00:Z","depth":0,"parameterNumber":2,"parameterNumberName":"U-component_of_WINDS"},"data":[0,0,0,0,0,0,0,0,0,0,0,0,0,0,0,0,0,0,0,0,0,0,0,0,0,0,0,0,0,0,0,0,0,0,0,0,0,0,0,0,0,0,0,0,0,0,0,0,0,0,0,0,0,0,0,0,0,0,-3.8348,-3.8348,0,-3.8339,-3.8338,-3.8338,-3.8321,-3.832,-3.832,-3.832,-3.8308,-3.8308,-3.8308,0,0,0,0,0,0,0,0,0,0,0,0,0,-3.8353,-3.8353,-3.8348,-3.8348,-3.8348,-3.8339,-3.8338,-3.8338,-3.8321,-3.832,-3.832,-3.832,-3.8308,-3.8308,-3.8308,0,0,0,0,0,0,0,0,0,0,0,0,0,-3.8348,-3.8353,-3.8348,-3.8338,-3.8337,-3.8339,-3.8338,-3.8338,-3.8321,-3.832,-3.832,-3.8319,-3.8308,-3.8308,-3.8308,-3.8318,0,0,-3.8308,-3.8308,0,0,0,0,0,0,0,0,-3.8348,-3.8347,-3.834,-3.8339,-3.8338,-3.833,-3.8336,-3.8331,-3.8321,-3.8327,-3.832,-3.8319,-3.8316,-3.8315,-3.8314,-3.8317,-3.8317,-3.8308,-3.8308,-3.8308,-3.8308,0,0,0,0,0,0,0,-3.8348,-3.8348,-3.8344,-3.834,-3.8339,-3.8334,-3.8333,-3.8335,-3.8324,-3.8326,-3.8325,-3.8324,-3.8315,-3.8314,-3.8314,-3.8316,-3.8308,-3.8308,-3.8308,-3.8308,-3.8329,-3.833,0,0,0,0,0,0,-3.835,-3.8348,-3.8345,-3.8344,-3.8342,-3.8335,-3.8333,-3.8333,-3.8324,-3.8322,-3.8325,-3.8324,-3.8314,-3.8314,-3.8313,-3.8325,-3.8308,-3.8308,-3.8308,-3.8329,-3.833,-3.833,0,0,0,0,0,0,-3.835,-3.835,-3.8345,-3.8346,-3.8345,-3.8335,-3.8335,-3.8333,-3.8332,-3.8323,-3.8321,-3.8326,-3.8314,-3.8313,-3.8317,-3.8324,-3.8308,-3.8308,-3.8328,-3.8329,-3.833,-3.8348,0,0,0,0,0,0,-3.8351,-3.835,-3.8353,-3.8346,-3.8345,-3.8349,-3.8336,-3.8333,-3.8333,-3.8331,-3.8323,-3.8321,-3.8314,-3.8317,-3.8317,-3.8324,-3.8308,-3.8327,-3.8329,-3.833,-3.8347,-3.8349,-3.8352,0,0,0,0,0,-3.8351,-3.8358,-3.8353,-3.8353,-3.8349,-3.8349,-3.8349,-3.834,-3.8333,-3.8337,-3.8331,-3.8322,-3.8324,-3.8318,-3.8318,-3.8324,-3.8327,-3.8328,-3.833,-3.8345,-3.8349,-3.8352,0,0,0,0,0,0,-3.8365,-3.8357,-3.8352,-3.8357,-3.8354,-3.8346,-3.835,-3.8343,-3.8342,-3.834,-3.8329,-3.8328,-3.8334,-3.833,-3.8323,-3.8335,-3.8324,-3.8326,-3.8337,-3.834,-3.8342,-3.8342,-3.8308,0,0,0,0,0,-3.8369,-3.837,-3.8363,-3.8368,-3.8367,-3.8359,-3.8359,-3.8353,-3.835,-3.8348,-3.8343,-3.8339,-3.834,-3.834,-3.8339,-3.8347,-3.8346,-3.8352,-3.8354,-3.8357,-3.8357,-3.8363,-3.8365,-3.8335,-3.8335,-3.8334,0,0,-3.8376,-3.8372,-3.8373,-3.8371,-3.8368,-3.837,-3.8358,-3.836,-3.8362,-3.8348,-3.8352,-3.8348,-3.8344,-3.8351,-3.8353,-3.8348,-3.8366,-3.8358,-3.836,-3.8359,-3.8364,-3.8367,-3.837,-3.8335,-3.8335,-3.8335,0,0,-3.8391,-3.8388,-3.8392,-3.8391,-3.8387,-3.8383,-3.8384,-3.8378,-3.8376,-3.838,-3.837,-3.8372,-3.8372,-3.837,-3.8369,-3.8388,-3.8379,-3.8388,-3.84,-3.8406,-3.8408,-3.841,-3.8417,-3.8419,-3.8389,-3.8389,-3.8389,0,-3.84,-3.8402,-3.8395,-3.8399,-3.8399,-3.8389,-3.8394,-3.8392,-3.8389,-3.8389,-3.8384,-3.8386,-3.8382,-3.8388,-3.8393,-3.8393,-3.8394,-3.8387,-3.8408,-3.841,-3.8412,-3.8418,-3.8421,-3.839,-3.839,-3.839,-3.839,0,-3.8415,-3.8417,-3.8421,-3.842,-3.842,-3.8424,-3.8419,-3.842,-3.8415,-3.8411,-3.8417,-3.8413,-3.8412,-3.8414,-3.8408,-3.8421,-3.8417,-3.841,-3.8399,-3.8416,-3.8422,-3.8424,-3.8392,-3.8391,-3.8391,-3.8391,0,0,-3.8434,-3.8431,-3.8433,-3.8433,-3.843,-3.8432,-3.8437,-3.8438,-3.8439,-3.8439,-3.8442,-3.8445,-3.8439,-3.8438,-3.8433,-3.8438,-3.8454,-3.8431,-3.843,-3.8435,-3.8468,-3.8472,-3.8475,-3.8449,-3.845,-3.845,-3.8468,0,-3.8448,-3.8455,-3.8451,-3.8459,-3.8462,-3.8455,-3.8459,-3.8458,-3.8456,-3.8458,-3.8455,-3.8457,-3.845,-3.8449,-3.8454,-3.8451,-3.846,-3.845,-3.8452,-3.8453,-3.8452,-3.8478,-3.8482,-3.8498,-3.847,-3.847,-3.8471,0,-3.8463,-3.8465,-3.8474,-3.8473,-3.8474,-3.8478,-3.8479,-3.8482,-3.8481,-3.8479,-3.848,-3.8475,-3.848,-3.8471,-3.8479,-3.8472,-3.8474,-3.8473,-3.8474,-3.8472,-3.8461,-3.8476,-3.8503,-3.8505,-3.8474,-3.8474,-3.8473,0,-3.8477,-3.8481,-3.8487,-3.8488,-3.8487,-3.849,-3.849,-3.8489,-3.8491,-3.8492,-3.8493,-3.8496,-3.8496,-3.8499,-3.8494,-3.8488,-3.8503,-3.8493,-3.8501,-3.8501,-3.8503,-3.8502,-3.853,-3.8506,-3.8506,-3.8506,-3.8506,0,-3.8491,-3.8497,-3.8494,-3.8497,-3.8505,-3.85,-3.8507,-3.8506,-3.8507,-3.851,-3.8505,-3.8508,-3.8503,-3.8507,-3.8504,-3.8511,-3.8512,-3.851,-3.8509,-3.851,-3.851,-3.8509,-3.8508,-3.8507,-3.8507,-3.8506,-3.8506,0,-3.8507,-3.8505,-3.8511,-3.8511,-3.8511,-3.8516,-3.8516,-3.852,-3.8518,-3.8524,-3.8525,-3.8522,-3.8526,-3.8523,-3.8527,-3.8525,-3.8535,-3.8532,-3.8535,-3.8534,-3.8542,-3.8541,-3.8568,-3.8572,-3.8547,-3.8547,-3.8547,0,-3.8515,-3.852,-3.8521,-3.8524,-3.8524,-3.8528,-3.853,-3.8527,-3.853,-3.8532,-3.8536,-3.854,-3.8543,-3.855,-3.8549,-3.8552,-3.8549,-3.8559,-3.855,-3.8551,-3.8549,-3.8548,-3.8549,-3.856,-3.856,-3.8561,-3.8561,0,-3.8532,-3.8531,-3.8534,-3.8538,-3.8541,-3.8544,-3.8546,-3.8549,-3.8546,-3.8549,-3.8554,-3.8557,-3.8562,-3.8566,-3.857,-3.857,-3.8565,-3.8565,-3.8566,-3.8566,-3.8567,-3.8567,-3.8539,-3.8563,-3.8563,-3.8563,-3.8563,-3.8563,-3.8543,-3.8548,-3.855,-3.8554,-3.8556,-3.8559,-3.8563,-3.8563,-3.8567,-3.8571,-3.857,-3.8576,-3.8578,-3.8582,-3.8584,-3.8589,-3.8585,-3.8587,-3.8588,-3.8588,-3.8589,-3.8568,-3.8589,-3.8589,-3.8589,-3.8589,-3.8589,0,-3.8559,-3.8561,-3.8565,-3.8569,-3.8573,-3.857,-3.8573,-3.8577,-3.8582,-3.8585,-3.8588,-3.8595,-3.86,-3.86,-3.8605,-3.8609,-3.8607,-3.861,-3.8609,-3.861,-3.8593,-3.859,-3.8612,-3.8612,-3.8612,-3.8612,-3.8612,-3.8612,-3.8568,-3.8575,-3.8575,-3.8584,-3.8586,-3.8592,-3.8594,-3.8597,-3.8599,-3.8607,-3.8611,-3.8612,-3.8614,-3.862,-3.8624,-3.8625,-3.8626,-3.863,-3.8629,-3.8613,-3.8611,-3.8608,-3.8606,-3.8631,-3.8631,-3.8646,-3.8646,-3.8646]},{"header":{"parameterUnit":"m.s-1","parameterCategory":1,"la1":30.2991,"la2":30.254,"lo1":-89.0895,"lo2":-89.0444,"dy":0.0017,"dx":0.0017,"nx":28,"ny":28,"refTime":"2023-04-20T21:00:00:Z","depth":0,"parameterNumber":3,"parameterNumberName":"V-component_of_WINDS"},"data":[0,0,0,0,0,0,0,0,0,0,0,0,0,0,0,0,0,0,0,0,0,0,0,0,0,0,0,0,0,0,0,0,0,0,0,0,0,0,0,0,0,0,0,0,0,0,0,0,0,0,0,0,0,0,0,0,0,0,4.0184,4.0184,0,4.0153,4.0152,4.0152,4.0185,4.0187,4.0188,4.0189,4.0151,4.0149,4.0147,0,0,0,0,0,0,0,0,0,0,0,0,0,4.027,4.0268,4.0184,4.0184,4.0183,4.0153,4.0152,4.0152,4.0185,4.0187,4.0188,4.019,4.0152,4.0149,4.0146,0,0,0,0,0,0,0,0,0,0,0,0,0,4.0234,4.0267,4.0184,4.0197,4.0197,4.0153,4.0152,4.0152,4.0185,4.0187,4.0189,4.0191,4.0153,4.0149,4.0146,4.0086,0,0,4.0136,4.0134,0,0,0,0,0,0,0,0,4.0236,4.0231,4.0195,4.0196,4.0196,4.0175,4.0168,4.0129,4.0184,4.0189,4.0189,4.0192,4.0157,4.0153,4.0143,4.0084,4.0083,4.0135,4.0133,4.0132,4.0131,0,0,0,0,0,0,0,4.0239,4.0233,4.0172,4.0194,4.0195,4.0202,4.02,4.0161,4.0162,4.0189,4.0191,4.0188,4.0158,4.0146,4.0142,4.0082,4.0136,4.0133,4.0131,4.0129,3.9976,3.9974,0,0,0,0,0,0,4.0241,4.0235,4.0173,4.0171,4.0222,4.0199,4.0196,4.018,4.0163,4.0162,4.0186,4.0189,4.0151,4.0146,4.0141,4.0072,4.0132,4.0129,4.0127,3.9978,3.9975,3.9973,0,0,0,0,0,0,4.0242,4.0235,4.0174,4.0203,4.0196,4.0196,4.0177,4.0178,4.0167,4.0161,4.0161,4.0174,4.0152,4.0146,4.0101,4.0071,4.0127,4.0124,3.998,3.9977,3.9974,3.9933,0,0,0,0,0,0,4.0245,4.0235,4.0213,4.0203,4.0194,4.0135,4.0175,4.0176,4.0162,4.0166,4.015,4.0149,4.0153,4.0106,4.0097,4.0068,4.0122,3.9983,3.9979,3.9975,3.9937,3.9928,3.9921,0,0,0,0,0,4.0247,4.0201,4.0212,4.0204,4.0167,4.0133,4.0128,4.0136,4.0159,4.0137,4.0133,4.0149,4.0076,4.0101,4.0092,4.0061,3.9985,3.998,3.9975,3.994,3.993,3.9922,0,0,0,0,0,0,4.0205,4.0199,4.0212,4.016,4.0147,4.0139,4.0111,4.0125,4.0103,4.0108,4.0117,4.0113,4.0066,4.0058,4.0086,4.0003,4.0034,4.0027,4.001,4.0,3.9993,3.9996,4.0119,0,0,0,0,0,4.019,4.0164,4.016,4.0115,4.0108,4.0111,4.0096,4.0104,4.009,4.0084,4.0077,4.0061,4.0035,4.0017,3.9992,3.9935,3.9933,3.991,3.9902,3.9896,3.989,3.9863,3.9853,3.9958,3.9958,3.9958,0,0,4.0158,4.0152,4.0134,4.0107,4.0097,4.007,4.0106,4.0074,4.0054,4.0078,4.0037,4.0031,4.0014,3.9964,3.9941,3.9956,3.9861,3.989,3.9885,3.9883,3.9857,3.9847,3.9838,3.9954,3.9955,3.9956,0,0,4.0086,4.0078,4.0042,4.0033,4.002,4.0022,4.0013,4.0003,4.0001,3.996,3.9978,3.9953,3.9907,3.9895,3.9883,3.981,3.9825,3.9801,3.9762,3.9735,3.9726,3.9719,3.9695,3.9686,3.9795,3.9795,3.9795,0,4.0048,4.0009,4.002,3.9989,3.9977,4.0,3.9963,3.9953,3.9931,3.9922,3.9939,3.9884,3.9874,3.9823,3.9806,3.9794,3.9785,3.9803,3.9727,3.972,3.9713,3.969,3.9681,3.9793,3.9793,3.9793,3.9794,0,3.9963,3.9936,3.9908,3.989,3.9874,3.9839,3.9845,3.9828,3.9837,3.9837,3.9796,3.9785,3.976,3.9748,3.9755,3.9698,3.9708,3.9726,3.9757,3.9701,3.9679,3.967,3.9789,3.979,3.9791,3.9791,0,0,3.9863,3.9854,3.9844,3.9837,3.9825,3.9804,3.9771,3.9749,3.9734,3.9718,3.9692,3.9653,3.9671,3.9657,3.9664,3.9639,3.9585,3.9661,3.966,3.9649,3.9524,3.9512,3.9501,3.9595,3.9593,3.9591,3.9526,0,3.9793,3.9739,3.9749,3.9696,3.9672,3.9694,3.9666,3.9655,3.9655,3.9633,3.9632,3.9606,3.963,3.9622,3.9599,3.9597,3.956,3.9601,3.957,3.9568,3.9575,3.949,3.9476,3.9415,3.9518,3.9516,3.9515,0,3.9704,3.9689,3.9634,3.9629,3.9619,3.9593,3.9576,3.9555,3.9543,3.9544,3.9531,3.9542,3.9509,3.9541,3.9496,3.9523,3.9511,3.9508,3.9506,3.9504,3.9539,3.9488,3.9395,3.9387,3.9502,3.9503,3.9504,0,3.964,3.9605,3.9568,3.9561,3.9554,3.9536,3.9531,3.9522,3.9509,3.9492,3.9484,3.9463,3.9451,3.9434,3.944,3.9462,3.9394,3.9425,3.9395,3.9395,3.938,3.9382,3.9287,3.937,3.937,3.937,3.937,0,3.9561,3.9527,3.954,3.9517,3.948,3.9492,3.9454,3.9452,3.9444,3.9422,3.9438,3.9416,3.9424,3.9402,3.9406,3.937,3.9363,3.9364,3.9366,3.9364,3.9364,3.9356,3.9361,3.9367,3.9368,3.9368,3.9369,0,3.9483,3.949,3.9452,3.9449,3.9448,3.942,3.9417,3.9396,3.9398,3.9369,3.9363,3.9365,3.9341,3.9345,3.9316,3.9319,3.9274,3.928,3.9279,3.9281,3.9251,3.9255,3.915,3.9137,3.9226,3.9225,3.9225,0,3.9434,3.9409,3.9404,3.9392,3.9387,3.9365,3.9353,3.9364,3.935,3.9337,3.9317,3.9295,3.9278,3.9238,3.9236,3.9215,3.9222,3.9187,3.9219,3.9218,3.9224,3.9226,3.9224,3.918,3.9179,3.9179,3.9178,0,3.9346,3.9352,3.9334,3.9319,3.9305,3.9292,3.9281,3.9269,3.9279,3.9263,3.924,3.9227,3.92,3.9178,3.9159,3.9154,3.9168,3.9168,3.916,3.9158,3.916,3.9161,3.9264,3.917,3.9171,3.9172,3.9172,3.9172,3.9282,3.9262,3.9257,3.9238,3.9231,3.9221,3.9203,3.9203,3.9185,3.9166,3.9173,3.9147,3.9137,3.9114,3.9106,3.9085,3.9098,3.9086,3.9084,3.9081,3.9079,3.9162,3.9082,3.9082,3.9082,3.9082,3.9082,0,3.9197,3.9196,3.9178,3.9164,3.915,3.9166,3.9155,3.9142,3.9119,3.911,3.9094,3.9068,3.9048,3.9045,3.9026,3.901,3.9016,3.9004,3.9006,3.9005,3.9067,3.9077,3.9,3.9,3.9,3.9,3.9,3.9,3.9152,3.912,3.9125,3.909,3.9088,3.9065,3.9057,3.9048,3.9042,3.9013,3.8997,3.8997,3.8991,3.8971,3.8953,3.8953,3.8946,3.8932,3.8934,3.8992,3.9001,3.9008,3.9018,3.893,3.893,3.8875,3.8874,3.8874]}]]